Multibeam Report for SKQ201501T


Ship Name: Sikuliaq
Chief Scientist: None
University of Alaska Fairbanks
Source Organization: Rolling Deck to Repository
Start Date: 2015-01-19
End Date: 2015-02-11


View ISO Metadata

Visit the full NCEI Bathymetry Viewer


Multibeam Bathymetry

Cruise Details

Project: Transit
Instrument: Kongsberg EM302 and EM710

Data Quality

Number of Files: 261
Number of Records: 268302
BATHYMETRY DATA Quantity Percentage
Number of Beams 109738064 100%
Number of Good Beams 89204361 81.29%
Number of Zero Beams 0 0%
Number of Flagged Beams 20533703 18.71%
AMPLITUDE DATA Quantity Percentage
Number of Beams 109738064 100%
Number of Good Beams 89204361 81.29%
Number of Zero Beams 0 0%
Number of Flagged Beams 20533703 18.71%
SIDESCAN DATA Quantity Percentage
Number of Pixels 274741248 100%
Number of Good Pixels 117071397 42.61%
Number of Zero Pixels 0 0%
Number of Flagged Pixels 157669851 57.39%

Navigation Totals

Total Time: 498.0847 hours
Total Track Length: 9629.9321 km
Average Speed: 19.334 km/hr (10.4395 knots)

Cruise Bounds

Northern Extent: 55.333466
Southern Extent: 13.561339
Western Extent: 144.59744
Eastern Extent: -131.55179

Limits

Minimum Sonar Depth 0 Maximum Sonar Depth 8.7517
Minimum Altitude 1.8027 Maximum Altitude 7938.3906
Minimum Depth 5.4532 Maximum Depth 8117.436
Minimum Amplitude 0 Maximum Amplitude 72.4
Minimum Sidescan 0 Maximum Sidescan 327.09

File Information

Full Resolution Bathymetry as collected (raw): 257

Files File Size Description
0000_20150119_081141_Sikuliaq.all.mb58.gz 103.97MB Kongsberg multibeam vendor format
0001_20150119_101138_Sikuliaq.all.mb58.gz 152.40MB Kongsberg multibeam vendor format
0002_20150119_121138_Sikuliaq.all.mb58.gz 94.25MB Kongsberg multibeam vendor format
0003_20150119_141136_Sikuliaq.all.mb58.gz 70.28MB Kongsberg multibeam vendor format
0004_20150119_161136_Sikuliaq.all.mb58.gz 66.69MB Kongsberg multibeam vendor format
0005_20150119_181140_Sikuliaq.all.mb58.gz 65.53MB Kongsberg multibeam vendor format
0006_20150119_201136_Sikuliaq.all.mb58.gz 65.86MB Kongsberg multibeam vendor format
0007_20150119_221139_Sikuliaq.all.mb58.gz 63.96MB Kongsberg multibeam vendor format
0008_20150120_001136_Sikuliaq.all.mb58.gz 59.16MB Kongsberg multibeam vendor format
0009_20150120_021140_Sikuliaq.all.mb58.gz 57.58MB Kongsberg multibeam vendor format
0010_20150120_041139_Sikuliaq.all.mb58.gz 63.29MB Kongsberg multibeam vendor format
0011_20150120_061135_Sikuliaq.all.mb58.gz 66.39MB Kongsberg multibeam vendor format
0012_20150120_081135_Sikuliaq.all.mb58.gz 71.05MB Kongsberg multibeam vendor format
0013_20150120_101134_Sikuliaq.all.mb58.gz 66.27MB Kongsberg multibeam vendor format
0014_20150120_121142_Sikuliaq.all.mb58.gz 64.83MB Kongsberg multibeam vendor format
0015_20150120_141135_Sikuliaq.all.mb58.gz 64.45MB Kongsberg multibeam vendor format
0016_20150120_161137_Sikuliaq.all.mb58.gz 62.73MB Kongsberg multibeam vendor format
0017_20150120_181139_Sikuliaq.all.mb58.gz 65.37MB Kongsberg multibeam vendor format
0018_20150120_201140_Sikuliaq.all.mb58.gz 68.86MB Kongsberg multibeam vendor format
0019_20150120_221141_Sikuliaq.all.mb58.gz 57.06MB Kongsberg multibeam vendor format
0020_20150121_001143_Sikuliaq.all.mb58.gz 61.43MB Kongsberg multibeam vendor format
0021_20150121_021137_Sikuliaq.all.mb58.gz 67.74MB Kongsberg multibeam vendor format
0022_20150121_041138_Sikuliaq.all.mb58.gz 92.62MB Kongsberg multibeam vendor format
0023_20150121_061133_Sikuliaq.all.mb58.gz 73.37MB Kongsberg multibeam vendor format
0024_20150121_081139_Sikuliaq.all.mb58.gz 68.31MB Kongsberg multibeam vendor format
0025_20150121_101133_Sikuliaq.all.mb58.gz 68.39MB Kongsberg multibeam vendor format
0026_20150121_121138_Sikuliaq.all.mb58.gz 66.09MB Kongsberg multibeam vendor format
0027_20150121_141140_Sikuliaq.all.mb58.gz 68.91MB Kongsberg multibeam vendor format
0028_20150121_161136_Sikuliaq.all.mb58.gz 75.92MB Kongsberg multibeam vendor format
0029_20150121_181143_Sikuliaq.all.mb58.gz 64.71MB Kongsberg multibeam vendor format
0030_20150121_201137_Sikuliaq.all.mb58.gz 61.41MB Kongsberg multibeam vendor format
0031_20150121_221142_Sikuliaq.all.mb58.gz 62.80MB Kongsberg multibeam vendor format
0032_20150122_001136_Sikuliaq.all.mb58.gz 63.12MB Kongsberg multibeam vendor format
0033_20150122_021141_Sikuliaq.all.mb58.gz 63.44MB Kongsberg multibeam vendor format
0034_20150122_041135_Sikuliaq.all.mb58.gz 62.69MB Kongsberg multibeam vendor format
0035_20150122_061142_Sikuliaq.all.mb58.gz 63.98MB Kongsberg multibeam vendor format
0036_20150122_081134_Sikuliaq.all.mb58.gz 63.18MB Kongsberg multibeam vendor format
0037_20150122_101144_Sikuliaq.all.mb58.gz 61.54MB Kongsberg multibeam vendor format
0038_20150122_121136_Sikuliaq.all.mb58.gz 60.63MB Kongsberg multibeam vendor format
0039_20150122_141135_Sikuliaq.all.mb58.gz 52.81MB Kongsberg multibeam vendor format
0040_20150122_161141_Sikuliaq.all.mb58.gz 58.40MB Kongsberg multibeam vendor format
0041_20150122_181141_Sikuliaq.all.mb58.gz 68.51MB Kongsberg multibeam vendor format
0042_20150122_201137_Sikuliaq.all.mb58.gz 68.37MB Kongsberg multibeam vendor format
0043_20150122_221139_Sikuliaq.all.mb58.gz 67.51MB Kongsberg multibeam vendor format
0044_20150123_001138_Sikuliaq.all.mb58.gz 68.53MB Kongsberg multibeam vendor format
0045_20150123_021136_Sikuliaq.all.mb58.gz 88.43MB Kongsberg multibeam vendor format
0046_20150123_041142_Sikuliaq.all.mb58.gz 66.83MB Kongsberg multibeam vendor format
0047_20150123_061144_Sikuliaq.all.mb58.gz 63.85MB Kongsberg multibeam vendor format
0048_20150123_081136_Sikuliaq.all.mb58.gz 65.22MB Kongsberg multibeam vendor format
0049_20150123_101139_Sikuliaq.all.mb58.gz 65.70MB Kongsberg multibeam vendor format
0050_20150123_121143_Sikuliaq.all.mb58.gz 64.24MB Kongsberg multibeam vendor format
0051_20150123_141141_Sikuliaq.all.mb58.gz 69.10MB Kongsberg multibeam vendor format
0052_20150123_161138_Sikuliaq.all.mb58.gz 65.57MB Kongsberg multibeam vendor format
0053_20150123_181140_Sikuliaq.all.mb58.gz 65.09MB Kongsberg multibeam vendor format
0054_20150123_201139_Sikuliaq.all.mb58.gz 61.77MB Kongsberg multibeam vendor format
0055_20150123_221137_Sikuliaq.all.mb58.gz 61.27MB Kongsberg multibeam vendor format
0056_20150124_001144_Sikuliaq.all.mb58.gz 60.80MB Kongsberg multibeam vendor format
0057_20150124_021136_Sikuliaq.all.mb58.gz 64.11MB Kongsberg multibeam vendor format
0058_20150124_041143_Sikuliaq.all.mb58.gz 64.99MB Kongsberg multibeam vendor format
0059_20150124_061143_Sikuliaq.all.mb58.gz 67.23MB Kongsberg multibeam vendor format
0060_20150124_081144_Sikuliaq.all.mb58.gz 66.45MB Kongsberg multibeam vendor format
0061_20150124_101142_Sikuliaq.all.mb58.gz 65.29MB Kongsberg multibeam vendor format
0062_20150124_121143_Sikuliaq.all.mb58.gz 65.19MB Kongsberg multibeam vendor format
0063_20150124_141136_Sikuliaq.all.mb58.gz 62.47MB Kongsberg multibeam vendor format
0064_20150124_161144_Sikuliaq.all.mb58.gz 60.51MB Kongsberg multibeam vendor format
0065_20150124_181143_Sikuliaq.all.mb58.gz 62.03MB Kongsberg multibeam vendor format
0066_20150124_201142_Sikuliaq.all.mb58.gz 62.95MB Kongsberg multibeam vendor format
0067_20150124_221137_Sikuliaq.all.mb58.gz 61.53MB Kongsberg multibeam vendor format
0068_20150125_001146_Sikuliaq.all.mb58.gz 62.82MB Kongsberg multibeam vendor format
0069_20150125_021119_Sikuliaq.all.mb58.gz 62.19MB Kongsberg multibeam vendor format
0070_20150125_041116_Sikuliaq.all.mb58.gz 63.50MB Kongsberg multibeam vendor format
0071_20150125_061119_Sikuliaq.all.mb58.gz 63.65MB Kongsberg multibeam vendor format
0072_20150125_081116_Sikuliaq.all.mb58.gz 60.25MB Kongsberg multibeam vendor format
0073_20150125_101119_Sikuliaq.all.mb58.gz 59.92MB Kongsberg multibeam vendor format
0074_20150125_121122_Sikuliaq.all.mb58.gz 59.81MB Kongsberg multibeam vendor format
0075_20150125_141115_Sikuliaq.all.mb58.gz 59.98MB Kongsberg multibeam vendor format
0076_20150125_161119_Sikuliaq.all.mb58.gz 59.84MB Kongsberg multibeam vendor format
0077_20150125_181114_Sikuliaq.all.mb58.gz 59.99MB Kongsberg multibeam vendor format
0078_20150125_201118_Sikuliaq.all.mb58.gz 61.69MB Kongsberg multibeam vendor format
0079_20150125_221122_Sikuliaq.all.mb58.gz 58.29MB Kongsberg multibeam vendor format
0080_20150126_001120_Sikuliaq.all.mb58.gz 59.06MB Kongsberg multibeam vendor format
0081_20150126_021121_Sikuliaq.all.mb58.gz 59.79MB Kongsberg multibeam vendor format
0082_20150126_041115_Sikuliaq.all.mb58.gz 59.15MB Kongsberg multibeam vendor format
0083_20150126_061114_Sikuliaq.all.mb58.gz 59.00MB Kongsberg multibeam vendor format
0084_20150126_081115_Sikuliaq.all.mb58.gz 58.85MB Kongsberg multibeam vendor format
0085_20150126_101115_Sikuliaq.all.mb58.gz 60.91MB Kongsberg multibeam vendor format
0086_20150126_121119_Sikuliaq.all.mb58.gz 59.17MB Kongsberg multibeam vendor format
0087_20150126_141120_Sikuliaq.all.mb58.gz 59.69MB Kongsberg multibeam vendor format
0088_20150126_161121_Sikuliaq.all.mb58.gz 59.68MB Kongsberg multibeam vendor format
0089_20150126_181119_Sikuliaq.all.mb58.gz 60.04MB Kongsberg multibeam vendor format
0090_20150126_201115_Sikuliaq.all.mb58.gz 60.94MB Kongsberg multibeam vendor format
0091_20150126_221116_Sikuliaq.all.mb58.gz 68.77MB Kongsberg multibeam vendor format
0092_20150127_001119_Sikuliaq.all.mb58.gz 64.61MB Kongsberg multibeam vendor format
0093_20150127_021117_Sikuliaq.all.mb58.gz 61.17MB Kongsberg multibeam vendor format
0094_20150127_041119_Sikuliaq.all.mb58.gz 60.37MB Kongsberg multibeam vendor format
0095_20150127_061118_Sikuliaq.all.mb58.gz 60.73MB Kongsberg multibeam vendor format
0096_20150127_081115_Sikuliaq.all.mb58.gz 63.16MB Kongsberg multibeam vendor format
0097_20150127_101116_Sikuliaq.all.mb58.gz 60.49MB Kongsberg multibeam vendor format
0098_20150127_121126_Sikuliaq.all.mb58.gz 61.45MB Kongsberg multibeam vendor format
0099_20150127_141115_Sikuliaq.all.mb58.gz 64.48MB Kongsberg multibeam vendor format
0100_20150127_161121_Sikuliaq.all.mb58.gz 61.15MB Kongsberg multibeam vendor format
0101_20150127_181120_Sikuliaq.all.mb58.gz 59.07MB Kongsberg multibeam vendor format
0102_20150127_201121_Sikuliaq.all.mb58.gz 61.11MB Kongsberg multibeam vendor format
0103_20150127_221117_Sikuliaq.all.mb58.gz 59.44MB Kongsberg multibeam vendor format
0104_20150128_001122_Sikuliaq.all.mb58.gz 63.29MB Kongsberg multibeam vendor format
0105_20150128_021119_Sikuliaq.all.mb58.gz 67.49MB Kongsberg multibeam vendor format
0106_20150128_041117_Sikuliaq.all.mb58.gz 71.99MB Kongsberg multibeam vendor format
0107_20150128_061116_Sikuliaq.all.mb58.gz 45.61MB Kongsberg multibeam vendor format
0108_20150128_074307_Sikuliaq.all.mb58.gz 59.76MB Kongsberg multibeam vendor format
0109_20150128_094314_Sikuliaq.all.mb58.gz 59.30MB Kongsberg multibeam vendor format
0110_20150128_114315_Sikuliaq.all.mb58.gz 57.23MB Kongsberg multibeam vendor format
0111_20150128_134307_Sikuliaq.all.mb58.gz 60.02MB Kongsberg multibeam vendor format
0112_20150128_154312_Sikuliaq.all.mb58.gz 57.39MB Kongsberg multibeam vendor format
0113_20150128_174308_Sikuliaq.all.mb58.gz 55.81MB Kongsberg multibeam vendor format
0114_20150128_194310_Sikuliaq.all.mb58.gz 53.86MB Kongsberg multibeam vendor format
0115_20150128_214311_Sikuliaq.all.mb58.gz 54.20MB Kongsberg multibeam vendor format
0116_20150128_234309_Sikuliaq.all.mb58.gz 51.65MB Kongsberg multibeam vendor format
0117_20150129_014310_Sikuliaq.all.mb58.gz 50.70MB Kongsberg multibeam vendor format
0118_20150129_034311_Sikuliaq.all.mb58.gz 55.15MB Kongsberg multibeam vendor format
0119_20150129_054313_Sikuliaq.all.mb58.gz 60.17MB Kongsberg multibeam vendor format
0120_20150129_074309_Sikuliaq.all.mb58.gz 61.77MB Kongsberg multibeam vendor format
0121_20150129_094310_Sikuliaq.all.mb58.gz 65.46MB Kongsberg multibeam vendor format
0122_20150129_114308_Sikuliaq.all.mb58.gz 66.36MB Kongsberg multibeam vendor format
0123_20150129_134313_Sikuliaq.all.mb58.gz 63.16MB Kongsberg multibeam vendor format
0124_20150129_154313_Sikuliaq.all.mb58.gz 59.88MB Kongsberg multibeam vendor format
0125_20150129_174317_Sikuliaq.all.mb58.gz 59.54MB Kongsberg multibeam vendor format
0126_20150129_194314_Sikuliaq.all.mb58.gz 60.12MB Kongsberg multibeam vendor format
0127_20150129_214318_Sikuliaq.all.mb58.gz 59.45MB Kongsberg multibeam vendor format
0128_20150129_234317_Sikuliaq.all.mb58.gz 61.65MB Kongsberg multibeam vendor format
0129_20150130_014311_Sikuliaq.all.mb58.gz 60.87MB Kongsberg multibeam vendor format
0130_20150130_034316_Sikuliaq.all.mb58.gz 59.65MB Kongsberg multibeam vendor format
0131_20150130_054315_Sikuliaq.all.mb58.gz 60.30MB Kongsberg multibeam vendor format
0132_20150130_074314_Sikuliaq.all.mb58.gz 59.75MB Kongsberg multibeam vendor format
0133_20150130_094317_Sikuliaq.all.mb58.gz 57.65MB Kongsberg multibeam vendor format
0134_20150130_114315_Sikuliaq.all.mb58.gz 57.96MB Kongsberg multibeam vendor format
0135_20150130_134319_Sikuliaq.all.mb58.gz 55.64MB Kongsberg multibeam vendor format
0136_20150130_154309_Sikuliaq.all.mb58.gz 55.14MB Kongsberg multibeam vendor format
0137_20150130_174310_Sikuliaq.all.mb58.gz 62.42MB Kongsberg multibeam vendor format
0138_20150130_194317_Sikuliaq.all.mb58.gz 60.52MB Kongsberg multibeam vendor format
0139_20150130_214311_Sikuliaq.all.mb58.gz 60.78MB Kongsberg multibeam vendor format
0140_20150130_234317_Sikuliaq.all.mb58.gz 59.79MB Kongsberg multibeam vendor format
0141_20150131_014315_Sikuliaq.all.mb58.gz 63.34MB Kongsberg multibeam vendor format
0142_20150131_034315_Sikuliaq.all.mb58.gz 62.78MB Kongsberg multibeam vendor format
0143_20150131_054312_Sikuliaq.all.mb58.gz 60.95MB Kongsberg multibeam vendor format
0144_20150131_074318_Sikuliaq.all.mb58.gz 61.39MB Kongsberg multibeam vendor format
0145_20150131_094311_Sikuliaq.all.mb58.gz 59.62MB Kongsberg multibeam vendor format
0146_20150131_114317_Sikuliaq.all.mb58.gz 59.87MB Kongsberg multibeam vendor format
0147_20150131_134314_Sikuliaq.all.mb58.gz 59.00MB Kongsberg multibeam vendor format
0148_20150131_154315_Sikuliaq.all.mb58.gz 57.65MB Kongsberg multibeam vendor format
0149_20150131_174316_Sikuliaq.all.mb58.gz 58.95MB Kongsberg multibeam vendor format
0150_20150131_194309_Sikuliaq.all.mb58.gz 59.45MB Kongsberg multibeam vendor format
0151_20150131_214316_Sikuliaq.all.mb58.gz 57.85MB Kongsberg multibeam vendor format
0152_20150131_234311_Sikuliaq.all.mb58.gz 54.18MB Kongsberg multibeam vendor format
0153_20150201_014316_Sikuliaq.all.mb58.gz 55.96MB Kongsberg multibeam vendor format
0154_20150201_034310_Sikuliaq.all.mb58.gz 52.27MB Kongsberg multibeam vendor format
0155_20150201_054319_Sikuliaq.all.mb58.gz 49.26MB Kongsberg multibeam vendor format
0156_20150201_074311_Sikuliaq.all.mb58.gz 49.52MB Kongsberg multibeam vendor format
0157_20150201_094319_Sikuliaq.all.mb58.gz 49.20MB Kongsberg multibeam vendor format
0158_20150201_114316_Sikuliaq.all.mb58.gz 49.21MB Kongsberg multibeam vendor format
0159_20150201_134312_Sikuliaq.all.mb58.gz 51.37MB Kongsberg multibeam vendor format
0160_20150201_154317_Sikuliaq.all.mb58.gz 51.53MB Kongsberg multibeam vendor format
0161_20150201_174318_Sikuliaq.all.mb58.gz 56.05MB Kongsberg multibeam vendor format
0162_20150201_194316_Sikuliaq.all.mb58.gz 58.59MB Kongsberg multibeam vendor format
0163_20150201_214316_Sikuliaq.all.mb58.gz 58.86MB Kongsberg multibeam vendor format
0164_20150201_234312_Sikuliaq.all.mb58.gz 59.07MB Kongsberg multibeam vendor format
0165_20150202_014317_Sikuliaq.all.mb58.gz 62.04MB Kongsberg multibeam vendor format
0166_20150202_034315_Sikuliaq.all.mb58.gz 61.38MB Kongsberg multibeam vendor format
0167_20150202_054317_Sikuliaq.all.mb58.gz 56.12MB Kongsberg multibeam vendor format
0168_20150202_074313_Sikuliaq.all.mb58.gz 58.94MB Kongsberg multibeam vendor format
0169_20150202_094312_Sikuliaq.all.mb58.gz 60.46MB Kongsberg multibeam vendor format
0170_20150202_114319_Sikuliaq.all.mb58.gz 61.66MB Kongsberg multibeam vendor format
0171_20150202_134320_Sikuliaq.all.mb58.gz 61.54MB Kongsberg multibeam vendor format
0172_20150202_154312_Sikuliaq.all.mb58.gz 62.31MB Kongsberg multibeam vendor format
0173_20150202_174312_Sikuliaq.all.mb58.gz 62.36MB Kongsberg multibeam vendor format
0174_20150202_194312_Sikuliaq.all.mb58.gz 63.95MB Kongsberg multibeam vendor format
0175_20150202_214317_Sikuliaq.all.mb58.gz 64.06MB Kongsberg multibeam vendor format
0176_20150202_234315_Sikuliaq.all.mb58.gz 64.83MB Kongsberg multibeam vendor format
0177_20150203_014312_Sikuliaq.all.mb58.gz 64.43MB Kongsberg multibeam vendor format
0178_20150203_034317_Sikuliaq.all.mb58.gz 65.10MB Kongsberg multibeam vendor format
0179_20150203_054318_Sikuliaq.all.mb58.gz 64.97MB Kongsberg multibeam vendor format
0180_20150203_074312_Sikuliaq.all.mb58.gz 65.24MB Kongsberg multibeam vendor format
0181_20150203_094318_Sikuliaq.all.mb58.gz 65.69MB Kongsberg multibeam vendor format
0182_20150203_114312_Sikuliaq.all.mb58.gz 66.05MB Kongsberg multibeam vendor format
0183_20150203_134312_Sikuliaq.all.mb58.gz 66.03MB Kongsberg multibeam vendor format
0184_20150203_154311_Sikuliaq.all.mb58.gz 66.02MB Kongsberg multibeam vendor format
0185_20150203_174318_Sikuliaq.all.mb58.gz 64.06MB Kongsberg multibeam vendor format
0186_20150203_194311_Sikuliaq.all.mb58.gz 63.07MB Kongsberg multibeam vendor format
0187_20150203_214312_Sikuliaq.all.mb58.gz 64.03MB Kongsberg multibeam vendor format
0188_20150203_234317_Sikuliaq.all.mb58.gz 64.37MB Kongsberg multibeam vendor format
0189_20150204_014319_Sikuliaq.all.mb58.gz 64.82MB Kongsberg multibeam vendor format
0190_20150204_034315_Sikuliaq.all.mb58.gz 64.19MB Kongsberg multibeam vendor format
0191_20150204_054313_Sikuliaq.all.mb58.gz 64.22MB Kongsberg multibeam vendor format
0192_20150204_074314_Sikuliaq.all.mb58.gz 64.55MB Kongsberg multibeam vendor format
0193_20150204_094314_Sikuliaq.all.mb58.gz 64.38MB Kongsberg multibeam vendor format
0194_20150204_114316_Sikuliaq.all.mb58.gz 64.33MB Kongsberg multibeam vendor format
0195_20150204_134313_Sikuliaq.all.mb58.gz 64.94MB Kongsberg multibeam vendor format
0196_20150204_154314_Sikuliaq.all.mb58.gz 65.13MB Kongsberg multibeam vendor format
0197_20150204_174318_Sikuliaq.all.mb58.gz 65.15MB Kongsberg multibeam vendor format
0198_20150204_194316_Sikuliaq.all.mb58.gz 65.10MB Kongsberg multibeam vendor format
0199_20150204_214318_Sikuliaq.all.mb58.gz 65.05MB Kongsberg multibeam vendor format
0200_20150204_234314_Sikuliaq.all.mb58.gz 65.41MB Kongsberg multibeam vendor format
0201_20150205_014315_Sikuliaq.all.mb58.gz 65.31MB Kongsberg multibeam vendor format
0202_20150205_034316_Sikuliaq.all.mb58.gz 64.77MB Kongsberg multibeam vendor format
0203_20150205_054317_Sikuliaq.all.mb58.gz 59.90MB Kongsberg multibeam vendor format
0204_20150205_074318_Sikuliaq.all.mb58.gz 59.22MB Kongsberg multibeam vendor format
0205_20150205_094317_Sikuliaq.all.mb58.gz 57.03MB Kongsberg multibeam vendor format
0206_20150205_114319_Sikuliaq.all.mb58.gz 57.03MB Kongsberg multibeam vendor format
0207_20150205_134316_Sikuliaq.all.mb58.gz 53.92MB Kongsberg multibeam vendor format
0208_20150205_154317_Sikuliaq.all.mb58.gz 56.28MB Kongsberg multibeam vendor format
0209_20150205_174316_Sikuliaq.all.mb58.gz 60.33MB Kongsberg multibeam vendor format
0210_20150205_194320_Sikuliaq.all.mb58.gz 59.33MB Kongsberg multibeam vendor format
0211_20150205_214316_Sikuliaq.all.mb58.gz 57.15MB Kongsberg multibeam vendor format
0212_20150205_234321_Sikuliaq.all.mb58.gz 57.08MB Kongsberg multibeam vendor format
0213_20150206_014316_Sikuliaq.all.mb58.gz 56.75MB Kongsberg multibeam vendor format
0214_20150206_034315_Sikuliaq.all.mb58.gz 59.82MB Kongsberg multibeam vendor format
0215_20150206_054315_Sikuliaq.all.mb58.gz 58.52MB Kongsberg multibeam vendor format
0216_20150206_074316_Sikuliaq.all.mb58.gz 59.27MB Kongsberg multibeam vendor format
0217_20150206_094318_Sikuliaq.all.mb58.gz 61.72MB Kongsberg multibeam vendor format
0218_20150206_114320_Sikuliaq.all.mb58.gz 61.47MB Kongsberg multibeam vendor format
0219_20150206_134317_Sikuliaq.all.mb58.gz 64.70MB Kongsberg multibeam vendor format
0220_20150206_154317_Sikuliaq.all.mb58.gz 66.79MB Kongsberg multibeam vendor format
0221_20150206_174315_Sikuliaq.all.mb58.gz 68.21MB Kongsberg multibeam vendor format
0222_20150206_194318_Sikuliaq.all.mb58.gz 68.77MB Kongsberg multibeam vendor format
0223_20150206_214318_Sikuliaq.all.mb58.gz 69.51MB Kongsberg multibeam vendor format
0224_20150206_234320_Sikuliaq.all.mb58.gz 68.91MB Kongsberg multibeam vendor format
0225_20150207_014318_Sikuliaq.all.mb58.gz 69.79MB Kongsberg multibeam vendor format
0226_20150207_034319_Sikuliaq.all.mb58.gz 69.75MB Kongsberg multibeam vendor format
0227_20150207_054320_Sikuliaq.all.mb58.gz 70.27MB Kongsberg multibeam vendor format
0228_20150207_074319_Sikuliaq.all.mb58.gz 70.35MB Kongsberg multibeam vendor format
0229_20150207_094314_Sikuliaq.all.mb58.gz 70.41MB Kongsberg multibeam vendor format
0230_20150207_114315_Sikuliaq.all.mb58.gz 70.29MB Kongsberg multibeam vendor format
0231_20150207_134315_Sikuliaq.all.mb58.gz 70.12MB Kongsberg multibeam vendor format
0232_20150207_154318_Sikuliaq.all.mb58.gz 70.49MB Kongsberg multibeam vendor format
0233_20150207_174319_Sikuliaq.all.mb58.gz 71.87MB Kongsberg multibeam vendor format
0234_20150207_194321_Sikuliaq.all.mb58.gz 72.60MB Kongsberg multibeam vendor format
0235_20150207_214318_Sikuliaq.all.mb58.gz 73.68MB Kongsberg multibeam vendor format
0236_20150207_234315_Sikuliaq.all.mb58.gz 73.00MB Kongsberg multibeam vendor format
0237_20150208_014310_Sikuliaq.all.mb58.gz 119.09MB Kongsberg multibeam vendor format
0238_20150208_034308_Sikuliaq.all.mb58.gz 309.54MB Kongsberg multibeam vendor format
0239_20150208_054309_Sikuliaq.all.mb58.gz 171.94MB Kongsberg multibeam vendor format
0239_20150208_070648_Sikuliaq.all.mb58.gz 401.74MB Kongsberg multibeam vendor format
0240_20150208_090648_Sikuliaq.all.mb58.gz 158.40MB Kongsberg multibeam vendor format
0241_20150208_110648_Sikuliaq.all.mb58.gz 73.78MB Kongsberg multibeam vendor format
0242_20150208_130648_Sikuliaq.all.mb58.gz 109.27MB Kongsberg multibeam vendor format
0243_20150208_150649_Sikuliaq.all.mb58.gz 246.68MB Kongsberg multibeam vendor format
0244_20150208_170648_Sikuliaq.all.mb58.gz 223.97MB Kongsberg multibeam vendor format
0000_20150208_023041_Sikuliaq.all.mb58.gz 79.04MB Kongsberg multibeam vendor format
0001_20150208_040042_Sikuliaq.all.mb58.gz 215.26MB Kongsberg multibeam vendor format
0002_20150208_053042_Sikuliaq.all.mb58.gz 143.11MB Kongsberg multibeam vendor format
0003_20150208_070042_Sikuliaq.all.mb58.gz 258.00MB Kongsberg multibeam vendor format
0004_20150208_083042_Sikuliaq.all.mb58.gz 188.00MB Kongsberg multibeam vendor format
0005_20150208_100042_Sikuliaq.all.mb58.gz 93.03MB Kongsberg multibeam vendor format
0006_20150208_113042_Sikuliaq.all.mb58.gz 57.78MB Kongsberg multibeam vendor format
0007_20150208_130042_Sikuliaq.all.mb58.gz 64.08MB Kongsberg multibeam vendor format
0008_20150208_143042_Sikuliaq.all.mb58.gz 165.63MB Kongsberg multibeam vendor format
0009_20150208_160041_Sikuliaq.all.mb58.gz 301.60MB Kongsberg multibeam vendor format
0010_20150208_173042_Sikuliaq.all.mb58.gz 147.58MB Kongsberg multibeam vendor format

Metadata Files: 3

Files File Size Description
SKQ201501T_Multibeam.xml NGDC created ISO metadata
em302_bag_info.tar.gz 30.0KB Additional cruise information
em710_bag_info.tar.gz 1.8KB Additional cruise information

Water Column Sonar Data

Water Column Sonar Data Available: WCSD Map Viewer